Weather History for KAOH - August, 2014

Change the Weather History Date:

Sunday, August 10, 2014

  Actual Average Record
Temperature  
Mean Temperature 76 °F -  
Max Temperature 88 °F - - ()
Min Temperature 64 °F - - ()
Cooling Degree Days 10    
Growing Degree Days 26 (Base 50)    
Moisture  
Dew Point 64 °F    
Average Humidity 72    
Maximum Humidity 90    
Minimum Humidity 41    
Precipitation  
Precipitation 0.00 in - - ()
Sea Level Pressure  
Sea Level Pressure 30.01 in    
Wind  
Wind Speed 8 mph (East)    
Max Wind Speed 14 mph    
Max Gust Speed -    
Visibility 9 miles    
Events      
T = Trace of Precipitation, MM = Missing Value Source: NWS Daily Summary

Daily Weather History Graph

Daily Weather History Graph

Search for Another Location

Airport or City:

Trip Planner

Search our weather history database for the weather conditions in past years. The results will help you decide how hot, cold, wet, or windy it might be!

Date:

Astronomy

Aug. 10, 2014 Rise Set
Actual Time 6:41 AM EDT 8:40 PM EDT
Civil Twilight 6:11 AM EDT 9:10 PM EDT
Nautical Twilight 5:35 AM EDT 9:46 PM EDT
Astronomical Twilight 4:55 AM EDT 10:26 PM EDT
Moon 8:26 PM EDT (8/10) 6:32 AM EDT (8/10)
Length of Visible Light 14h 58m
Length of Day
13h 59m
Full, 100% of the Moon is Illuminated
Aug 10
Full
Aug 10
Full
Aug 17
Last Quarter
Aug 25
New
Sep 2
First Quarter

Hourly Weather History & Observations

Time (EDT) Temp. Heat Index Dew Point Humidity Pressure Visibility Wind Dir Wind Speed Gust Speed Precip Events Conditions
12:53 AM 66.0 °F - 61.0 °F 84% 30.05 in 10.0 mi ENE 8.1 mph - N/A   Clear
1:53 AM 64.9 °F - 61.0 °F 87% 30.04 in 10.0 mi ENE 9.2 mph - N/A   Clear
2:53 AM 66.0 °F - 62.1 °F 87% 30.04 in 10.0 mi ENE 9.2 mph - N/A   Overcast
3:53 AM 64.9 °F - 61.0 °F 87% 30.03 in 10.0 mi ENE 6.9 mph - N/A   Mostly Cloudy
4:53 AM 64.0 °F - 61.0 °F 90% 30.03 in 8.0 mi ENE 6.9 mph - N/A   Clear
5:53 AM 64.9 °F - 61.0 °F 87% 30.02 in 7.0 mi ENE 4.6 mph - N/A   Overcast
6:53 AM 64.0 °F - 61.0 °F 90% 30.04 in 4.0 mi ENE 5.8 mph - N/A   Clear
7:53 AM 66.0 °F - 62.1 °F 87% 30.04 in 4.0 mi East 6.9 mph - N/A   Clear
8:53 AM 70.0 °F - 64.0 °F 81% 30.05 in 5.0 mi East 5.8 mph - N/A   Haze
10:53 AM 80.1 °F 82.9 °F 69.1 °F 69% 30.05 in 10.0 mi East 4.6 mph - N/A   Clear
11:53 AM 82.0 °F 84.5 °F 66.9 °F 60% 30.04 in 10.0 mi ESE 9.2 mph - N/A   Clear
12:53 PM 82.9 °F 85.0 °F 66.0 °F 56% 30.03 in 10.0 mi East 11.5 mph - N/A   Clear
1:53 PM 84.9 °F 87.1 °F 66.0 °F 53% 30.02 in 10.0 mi East 11.5 mph - N/A   Clear
2:53 PM 84.9 °F 86.1 °F 64.0 °F 49% 30.01 in 10.0 mi East 13.8 mph - N/A   Clear
4:53 PM 87.1 °F 87.0 °F 61.0 °F 41% 29.98 in 10.0 mi East 9.2 mph - N/A   Clear
5:53 PM 87.1 °F 87.8 °F 63.0 °F 44% 29.97 in 10.0 mi ESE 11.5 mph - N/A   Clear
6:53 PM 84.9 °F 86.1 °F 64.0 °F 49% 29.96 in 10.0 mi East 8.1 mph - N/A   Clear
8:53 PM 75.9 °F - 66.0 °F 71% 29.95 in 10.0 mi East 4.6 mph - N/A   Overcast
9:53 PM 75.0 °F - 69.1 °F 82% 29.96 in 8.0 mi NE 5.8 mph - N/A   Overcast
10:53 PM 75.0 °F - 68.0 °F 79% 29.96 in 7.0 mi ENE 8.1 mph - N/A   Overcast